This demonstration page uses our WeatherBlox Daily Observations layout. Learn more.

39.29038, -76.61219

Hourly Observations for April 4, 2016

Temp ( °F °C ) Dew Point ( °F °C ) Humidity (%) Winds ( mph kmh ) Pressure ( in mb ) Visibility ( mi km ) Precip ( " mm )
12:54 am 00:54 undefined 48 8.9 37 2.8 66 66 undefined N/A 29.95 1014 N/A 0 0
1:54 am 01:54 undefined 47 8.3 35 1.7 63 63 undefined N/A 29.95 1014 N/A 0 0
2:54 am 02:54 undefined 47 8.3 35 1.7 63 63 undefined N/A 29.91 1013 N/A 0 0
3:54 am 03:54 undefined 47 8.3 30 -1.1 52 52 undefined N/A 29.88 1012 N/A 0 0
4:54 am 04:54 undefined 46 7.8 30 -1.1 54 54 undefined N/A 29.86 1011 N/A 0 0
5:54 am 05:54 undefined 45 7.2 29 -1.7 54 54 undefined N/A 29.84 1011 N/A 0 0
6:54 am 06:54 undefined 45 7.2 30 -1.1 56 56 undefined N/A 29.84 1011 N/A 0 0
7:54 am 07:54 undefined 50 10 31 -0.6 48 48 undefined N/A 29.87 1011 N/A 0 0
8:54 am 08:54 undefined 56 13.3 33 0.6 42 42 undefined N/A 29.87 1011 N/A 0 0
9:54 am 09:54 undefined 61 16.1 33 0.6 35 35 undefined N/A 29.85 1011 N/A 0 0
10:54 am 10:54 undefined 63 17.2 33 0.6 33 33 undefined N/A 29.82 1010 N/A 0 0
11:54 am 11:54 undefined 66 18.9 34 1.1 30 30 undefined N/A 29.8 1009 N/A 0 0
12:54 pm 12:54 undefined 69 20.6 33 0.6 26 26 undefined N/A 29.76 1008 N/A 0 0
1:54 pm 13:54 undefined 70 21.1 34 1.1 27 27 undefined N/A 29.74 1007 N/A 0 0
2:54 pm 14:54 undefined 71 21.7 34 1.1 26 26 undefined N/A 29.74 1007 N/A 0 0
3:54 pm 15:54 undefined 62 16.7 46 7.8 56 56 undefined N/A 29.72 1007 N/A 0 0
4:54 pm 16:54 undefined 61 16.1 46 7.8 58 58 undefined N/A 29.76 1008 N/A 0 0
5:54 pm 17:54 undefined 56 13.3 49 9.4 77 77 undefined N/A 29.79 1009 N/A 0.08 2.032
6:54 pm 18:54 undefined 56 13.3 50 10 81 81 undefined N/A 29.83 1010 N/A 0.06 1.524
7:54 pm 19:54 undefined 55 12.8 50 10 83 83 undefined N/A 29.85 1011 N/A 0 0
8:54 pm 20:54 undefined 51 10.6 42 5.6 71 71 undefined N/A 29.88 1012 N/A 0 0
9:54 pm 21:54 undefined 44 6.7 34 1.1 68 68 undefined N/A 29.93 1014 N/A 0 0
10:54 pm 22:54 undefined 41 5 28 -2.2 60 60 undefined N/A 30 1016 N/A 0 0
11:54 pm 23:54 undefined 38 3.3 26 -3.3 62 62 undefined N/A 30.03 1017 N/A 0 0

Powered by AerisWeather